User: anonymous   Login
Location: Gagetown
(45.7834°N, 66.1486°W)
Time: 14:36:10
(UTC+00:00)
Language:

BUGSAT 1 - Orbit

View from above orbital plane
View from above orbital plane
View from above satellite
View from above satellite

Ground track
Ground track

The orbit data is extracted from the following two-line orbital elements,

1 40014U 14033E   21268.23020173  .00000264  00000-0  29159-4 0  9999
2 40014  98.1202 251.3453 0030821 192.6782 167.3669 14.95839234396481
Epoch (UTC): 25 September 2021 05:31:29
Eccentricity: 0.0030821
inclination: 98.1202°
perigee height: 558 km
apogee height: 601 km
right ascension of ascending node: 251.3453°
argument of perigee: 192.6782°
revolutions per day: 14.95839234
mean anomaly at epoch: 167.3669°
orbit number at epoch: 39648

The dashed part of the orbit path shows where the satellite is in the earth's shadow,  

DLR